TimeCST,TemperatureF,Dew PointF,Humidity,Sea Level PressureIn,VisibilityMPH,Wind Direction,Wind SpeedMPH,Gust SpeedMPH,PrecipitationIn,Events,Conditions,WindDirDegrees,DateUTC
12:15 AM,15.8,10.4,79,29.90,1.5,NNE,9.2,21.9,N/A,,Overcast,20,2013-12-29 06:15:00
12:35 AM,15.8,10.4,79,29.91,1.8,NNE,12.7,20.7,N/A,,Overcast,20,2013-12-29 06:35:00
12:55 AM,15.8,10.4,79,29.92,2.0,North,12.7,21.9,N/A,,Overcast,10,2013-12-29 06:55:00
1:15 AM,15.8,10.4,79,29.94,1.5,NNE,11.5,21.9,N/A,,Overcast,20,2013-12-29 07:15:00
1:35 AM,15.8,10.4,79,29.94,1.2,NNE,13.8,18.4,N/A,,Overcast,30,2013-12-29 07:35:00
1:55 AM,14.0,8.6,79,29.96,1.5,North,11.5,19.6,N/A,,Overcast,10,2013-12-29 07:55:00
2:15 AM,14.0,8.6,79,29.97,1.5,NNE,9.2,-,N/A,,Overcast,20,2013-12-29 08:15:00
2:35 AM,12.2,6.8,79,29.98,1.8,NNE,11.5,17.3,N/A,,Overcast,30,2013-12-29 08:35:00
2:55 AM,12.2,8.6,85,29.98,1.5,North,11.5,19.6,N/A,,Overcast,10,2013-12-29 08:55:00
3:15 AM,12.2,6.8,79,29.99,1.5,North,11.5,20.7,N/A,,Overcast,10,2013-12-29 09:15:00
3:35 AM,12.2,6.8,79,30.00,1.5,North,13.8,20.7,N/A,,Overcast,10,2013-12-29 09:35:00
3:55 AM,10.4,5.0,79,30.00,2.0,North,12.7,19.6,N/A,,Overcast,360,2013-12-29 09:55:00
4:15 AM,10.4,5.0,79,30.00,1.8,North,10.4,18.4,N/A,,Overcast,350,2013-12-29 10:15:00
4:35 AM,10.4,3.2,73,30.00,2.0,North,9.2,18.4,N/A,,Overcast,360,2013-12-29 10:35:00
4:55 AM,10.4,3.2,73,30.01,2.0,North,9.2,-,N/A,,Overcast,360,2013-12-29 10:55:00
5:15 AM,10.4,5.0,79,30.02,1.2,North,10.4,19.6,N/A,,Overcast,360,2013-12-29 11:15:00
5:35 AM,8.6,3.2,79,30.03,1.2,North,11.5,-,N/A,,Overcast,350,2013-12-29 11:35:00
5:55 AM,8.6,1.4,73,30.03,1.5,North,10.4,16.1,N/A,,Overcast,360,2013-12-29 11:55:00
6:15 AM,8.6,3.2,79,30.03,2.5,North,10.4,17.3,N/A,,Overcast,360,2013-12-29 12:15:00
6:35 AM,8.6,3.2,79,30.04,2.5,North,10.4,17.3,N/A,,Overcast,350,2013-12-29 12:35:00
6:55 AM,8.6,1.4,73,30.04,3.0,North,10.4,16.1,N/A,,Overcast,360,2013-12-29 12:55:00
7:15 AM,8.6,3.2,79,30.05,1.5,North,9.2,-,N/A,,Overcast,350,2013-12-29 13:15:00
7:35 AM,6.8,1.4,79,30.05,0.5,North,9.2,19.6,N/A,,Overcast,360,2013-12-29 13:35:00
7:55 AM,6.8,1.4,79,30.06,0.5,North,12.7,19.6,N/A,,Overcast,350,2013-12-29 13:55:00
8:15 AM,6.8,-0.4,72,30.07,0.8,North,9.2,-,N/A,,Overcast,350,2013-12-29 14:15:00
8:35 AM,6.8,-0.4,72,30.07,1.5,North,10.4,-,N/A,,Overcast,350,2013-12-29 14:35:00
8:55 AM,6.8,-0.4,72,30.07,2.5,NNW,10.4,-,N/A,,Overcast,340,2013-12-29 14:55:00
9:15 AM,6.8,-0.4,72,30.07,1.5,North,10.4,-,N/A,,Overcast,350,2013-12-29 15:15:00
9:35 AM,6.8,-0.4,72,30.07,1.0,North,11.5,-,N/A,,Overcast,350,2013-12-29 15:35:00
9:55 AM,5.0,-0.4,78,30.08,1.2,North,11.5,17.3,N/A,,Overcast,350,2013-12-29 15:55:00
10:15 AM,5.0,-2.2,72,30.08,0.8,North,8.1,-,N/A,,Overcast,350,2013-12-29 16:15:00
10:35 AM,5.0,-0.4,78,30.08,1.2,North,10.4,-,N/A,,Overcast,360,2013-12-29 16:35:00
10:55 AM,5.0,-2.2,72,30.08,1.2,NNW,12.7,18.4,N/A,,Overcast,340,2013-12-29 16:55:00
11:15 AM,5.0,-2.2,72,30.07,1.0,NNW,13.8,-,N/A,,Overcast,340,2013-12-29 17:15:00
11:35 AM,5.0,-0.4,78,30.06,0.8,NNW,11.5,16.1,N/A,,Overcast,330,2013-12-29 17:35:00
11:55 AM,5.0,-0.4,78,30.06,0.5,NNW,15.0,-,N/A,,Overcast,330,2013-12-29 17:55:00
12:15 PM,5.0,-2.2,72,30.06,1.0,North,11.5,18.4,N/A,,Overcast,350,2013-12-29 18:15:00
12:35 PM,3.2,-2.2,78,30.06,1.5,North,11.5,-,N/A,,Overcast,360,2013-12-29 18:35:00
12:55 PM,5.0,-2.2,72,30.05,2.5,NNW,9.2,-,N/A,,Overcast,340,2013-12-29 18:55:00
1:15 PM,3.2,-2.2,78,30.05,0.2,NW,11.5,20.7,N/A,,Overcast,320,2013-12-29 19:15:00
1:35 PM,3.2,-2.2,78,30.05,0.5,NW,12.7,19.6,N/A,,Overcast,320,2013-12-29 19:35:00
1:55 PM,3.2,-5.8,66,30.06,0.5,WNW,15.0,20.7,N/A,,Overcast,300,2013-12-29 19:55:00
2:15 PM,1.4,-2.2,85,30.06,0.8,WNW,15.0,19.6,N/A,,Overcast,300,2013-12-29 20:15:00
2:35 PM,1.4,-5.8,72,30.06,2.0,NW,12.7,-,N/A,,Overcast,310,2013-12-29 20:35:00
2:55 PM,1.4,-5.8,72,30.06,1.2,NW,11.5,-,N/A,,Overcast,310,2013-12-29 20:55:00
3:15 PM,1.4,-5.8,72,30.07,1.0,WNW,11.5,16.1,N/A,,Overcast,290,2013-12-29 21:15:00
3:35 PM,1.4,-7.6,66,30.07,1.5,WNW,11.5,-,N/A,,Overcast,290,2013-12-29 21:35:00
3:55 PM,-0.4,-7.6,72,30.07,1.2,WNW,11.5,-,N/A,,Overcast,290,2013-12-29 21:55:00
4:15 PM,-0.4,-7.6,72,30.07,1.0,West,11.5,-,N/A,,Overcast,260,2013-12-29 22:15:00
4:35 PM,-2.2,-11.2,66,30.07,1.5,West,12.7,-,N/A,,Overcast,270,2013-12-29 22:35:00
4:55 PM,-2.2,-5.8,85,30.07,1.5,West,13.8,-,N/A,,Overcast,260,2013-12-29 22:55:00
5:15 PM,-2.2,-11.2,66,30.08,1.5,West,13.8,-,N/A,,Overcast,260,2013-12-29 23:15:00
5:35 PM,-2.2,-7.6,78,30.09,1.5,West,13.8,18.4,N/A,,Overcast,270,2013-12-29 23:35:00
5:55 PM,-4.0,-11.2,71,30.09,1.8,West,12.7,-,N/A,,Overcast,260,2013-12-29 23:55:00
6:15 PM,-4.0,-9.4,78,30.09,2.0,West,9.2,-,N/A,,Overcast,260,2013-12-30 00:15:00
6:35 PM,-5.8,-13.0,71,30.08,2.0,West,12.7,-,N/A,,Overcast,260,2013-12-30 00:35:00
6:55 PM,-5.8,-9.4,84,30.08,2.0,West,15.0,-,N/A,,Overcast,260,2013-12-30 00:55:00
7:15 PM,-5.8,-13.0,71,30.08,2.5,West,13.8,-,N/A,,Overcast,260,2013-12-30 01:15:00
7:35 PM,-5.8,-11.2,77,30.08,2.0,WSW,13.8,-,N/A,,Overcast,240,2013-12-30 01:35:00
7:55 PM,-5.8,-11.2,77,30.08,2.0,WSW,13.8,-,N/A,,Overcast,250,2013-12-30 01:55:00
8:15 PM,-7.6,-14.8,71,30.08,3.0,WSW,12.7,-,N/A,,Overcast,250,2013-12-30 02:15:00
8:35 PM,-7.6,-13.0,77,30.09,2.0,WSW,15.0,-,N/A,,Overcast,250,2013-12-30 02:35:00
8:55 PM,-7.6,-14.8,71,30.09,3.0,WSW,12.7,-,N/A,,Overcast,250,2013-12-30 02:55:00
9:15 PM,-7.6,-13.0,77,30.09,5.0,West,13.8,-,N/A,,Overcast,260,2013-12-30 03:15:00
9:35 PM,-7.6,-14.8,71,30.09,3.0,WSW,16.1,-,N/A,,Overcast,250,2013-12-30 03:35:00
9:55 PM,-7.6,-14.8,71,30.09,3.0,WSW,12.7,-,N/A,,Overcast,250,2013-12-30 03:55:00
10:15 PM,-7.6,-16.6,65,30.10,4.0,WSW,15.0,-,N/A,,Overcast,240,2013-12-30 04:15:00
10:35 PM,-7.6,-14.8,71,30.10,3.0,WSW,12.7,-,N/A,,Overcast,250,2013-12-30 04:35:00
10:55 PM,-9.4,-14.8,77,30.10,5.0,WSW,12.7,-,N/A,,Overcast,240,2013-12-30 04:55:00
11:15 PM,-9.4,-16.6,71,30.10,5.0,WSW,12.7,-,N/A,,Overcast,250,2013-12-30 05:15:00
11:35 PM,-9.4,-13.0,84,30.11,6.0,WSW,12.7,-,N/A,,Overcast,250,2013-12-30 05:35:00
11:55 PM,-9.4,-16.6,71,30.12,5.0,WSW,13.8,-,N/A,,Overcast,240,2013-12-30 05:55:00